User: anonymous   Login
Location: Unspecified
(0.0000°N, 0.0000°E)
Time: 02:55:54
(UTC+00:00)
Language:

ISS - Orbit

View from above orbital plane
View from above orbital plane
View from above satellite
View from above satellite

Ground track
Ground track

The orbit data is extracted from the following two-line orbital elements,

1 25544U 98067A   16205.83901620  .00000387  00000-0  12792-4 0  9996
2 25544  51.6432 235.1627 0002107  74.7823 267.7037 15.54871159 10683
Epoch (UTC): 23 July 2016 20:08:11
Eccentricity: 0.0002107
inclination: 51.6432°
perigee height: 401 km
apogee height: 404 km
right ascension of ascending node: 235.1627°
argument of perigee: 74.7823°
revolutions per day: 15.54871159
mean anomaly at epoch: 267.7037°
orbit number at epoch: 1068

The dashed part of the orbit path shows where the satellite is in the earth's shadow,  

DLR